Location: Balmoral
(33.0667°S, 151.5833°E)
Time: 00:29:20
(UTC+00:00)

ALOS - Pass Details

Date: 18 September 2020
Orbit: 683 x 686 km, 97.9° (Epoch: 21 October)

Event Time Altitude Azimuth Distance (km) Brightness Sun altitude
Rises 18:11:10 0° 1° (N) 3,033 5.5 -20.9°
Reaches altitude 10° 18:13:27 10° 356° (N) 2,126 4.6 -20.4°
Maximum altitude 18:17:58 51° 279° (W) 870 2.4 -19.5°
Drops below altitude 10° 18:22:34 10° 203° (SSW) 2,156 4.7 -18.5°
Sets 18:24:54 0° 198° (SSW) 3,080 5.6 -18.0°
